Weather History for KLAF - September, 2013

Change the Weather History Date:

Wednesday, September 4, 2013

  Actual Average Record
Temperature  
Mean Temperature 67 °F 70 °F  
Max Temperature 84 °F 82 °F 95 °F (1999)
Min Temperature 50 °F 59 °F 44 °F (1974)
Degree Days  
Heating Degree Days 0 1  
Month to date heating degree days 1 3  
Since 1 July heating degree days 21 9  
Cooling Degree Days 2 6  
Month to date cooling degree days 17 26  
Year to date cooling degree days 743 878  
Growing Degree Days 16 (Base 50)    
Moisture  
Dew Point 55 °F    
Average Humidity 69    
Maximum Humidity 100    
Minimum Humidity 37    
Precipitation  
Precipitation 0.00 in 0.09 in 0.89 in (1970)
Month to date precipitation 0.00 0.35  
Year to date precipitation 27.63 25.90  
Sea Level Pressure  
Sea Level Pressure 30.11 in    
Wind  
Wind Speed 4 mph (West)    
Max Wind Speed 12 mph    
Max Gust Speed 16 mph    
Visibility 6 miles    
Events Fog    
T = Trace of Precipitation, MM = Missing Value Source: NWS Daily Summary

Daily Weather History Graph

Daily Weather History Graph

Search for Another Location

Airport or City:

Trip Planner

Search our weather history database for the weather conditions in past years. The results will help you decide how hot, cold, wet, or windy it might be!

Date:

Astronomy

Sep. 04, 2013 Rise Set
Actual Time 7:18 AM EDT 8:14 PM EDT
Civil Twilight 6:50 AM EDT 8:42 PM EDT
Nautical Twilight 6:17 AM EDT 9:15 PM EDT
Astronomical Twilight 5:42 AM EDT 9:49 PM EDT
Moon 6:29 AM EDT (9/4) 7:33 PM EDT (9/4)
Length of Visible Light 13h 51m
Length of Day
12h 56m
Waning Crescent, 1% of the Moon is Illuminated
Sep 4
Waning Crescent
Sep 5
New
Sep 12
First Quarter
Sep 19
Full
Sep 26
Last Quarter

Hourly Weather History & Observations

Time (EDT) Temp. Heat Index Dew Point Humidity Pressure Visibility Wind Dir Wind Speed Gust Speed Precip Events Conditions
12:54 AM 55.9 °F - 55.0 °F 97% 30.06 in 8.0 mi Calm Calm - N/A   Clear
1:54 AM 55.9 °F - 54.0 °F 93% 30.08 in 10.0 mi Calm Calm - N/A   Clear
2:54 AM 54.0 °F - 53.1 °F 97% 30.08 in 10.0 mi Calm Calm - N/A   Clear
3:54 AM 54.0 °F - 54.0 °F 100% 30.09 in 8.0 mi WNW 3.5 mph - N/A   Clear
4:05 AM 53.6 °F - 53.6 °F 100% 30.10 in 1.8 mi Calm Calm - N/A   Partly Cloudy
4:15 AM 53.6 °F - 53.6 °F 100% 30.10 in 3.0 mi Calm Calm - N/A   Clear
4:25 AM 53.6 °F - 53.6 °F 100% 30.10 in 1.2 mi Calm Calm - N/A   Partly Cloudy
4:27 AM 53.6 °F - 53.6 °F 100% 30.10 in 0.8 mi Calm Calm - N/A   Mist
4:37 AM 53.6 °F - 51.8 °F 94% 30.10 in 1.2 mi Calm Calm - N/A   Partly Cloudy
4:41 AM 51.8 °F - 51.8 °F 100% 30.10 in 3.0 mi Calm Calm - N/A   Partly Cloudy
4:50 AM 53.6 °F - 51.8 °F 94% 30.10 in 2.5 mi Calm Calm - N/A   Mostly Cloudy
4:54 AM 53.1 °F - 52.0 °F 96% 30.10 in 0.8 mi Calm Calm - N/A   Mist
5:03 AM 51.8 °F - 51.8 °F 100% 30.10 in 0.2 mi West 3.5 mph - N/A Fog Fog
5:54 AM 52.0 °F - 52.0 °F 100% 30.10 in 0.5 mi Calm Calm - N/A Fog Fog
6:17 AM 51.8 °F - 51.8 °F 100% 30.11 in 0.2 mi Calm Calm - 0.01 in Fog Fog
6:54 AM 50.0 °F - 50.0 °F 100% 30.12 in 0.5 mi Calm Calm - 0.01 in Fog Fog
7:54 AM 50.0 °F - 50.0 °F 100% 30.13 in 0.5 mi Calm Calm - N/A Fog Fog
8:27 AM 53.6 °F - 53.6 °F 100% 30.15 in 2.0 mi Calm Calm - N/A   Overcast
8:54 AM 55.0 °F - 55.0 °F 100% 30.15 in 7.0 mi Calm Calm - N/A   Mostly Cloudy
9:01 AM 55.4 °F - 55.4 °F 100% 30.15 in 8.0 mi Calm Calm - N/A   Partly Cloudy
9:54 AM 62.1 °F - 57.0 °F 84% 30.15 in 10.0 mi WSW 3.5 mph - N/A   Clear
10:54 AM 69.1 °F - 57.9 °F 68% 30.16 in 10.0 mi WSW 4.6 mph - N/A   Clear
11:54 AM 73.9 °F - 57.9 °F 57% 30.15 in 10.0 mi WSW 8.1 mph - N/A   Clear
12:54 PM 78.1 °F - 57.0 °F 48% 30.14 in 10.0 mi West 9.2 mph - N/A   Clear
1:54 PM 79.0 °F - 57.0 °F 47% 30.14 in 10.0 mi West 8.1 mph - N/A   Clear
2:54 PM 80.1 °F 80.2 °F 55.9 °F 43% 30.12 in 10.0 mi WNW 6.9 mph - N/A   Clear
3:54 PM 82.0 °F 81.4 °F 55.0 °F 39% 30.11 in 10.0 mi West 9.2 mph - N/A   Clear
4:54 PM 82.9 °F 82.0 °F 55.0 °F 38% 30.10 in 10.0 mi West 10.4 mph - N/A   Clear
5:54 PM 82.0 °F 81.3 °F 54.0 °F 38% 30.09 in 10.0 mi West 6.9 mph - N/A   Clear
6:54 PM 81.0 °F 80.8 °F 55.9 °F 42% 30.08 in 10.0 mi West 4.6 mph - N/A   Clear
7:54 PM 75.9 °F - 57.9 °F 54% 30.08 in 10.0 mi SSW 4.6 mph - N/A   Clear
8:54 PM 71.1 °F - 61.0 °F 70% 30.09 in 10.0 mi West 3.5 mph - N/A   Clear
9:54 PM 66.9 °F - 61.0 °F 81% 30.12 in 10.0 mi Calm Calm - N/A   Clear
10:54 PM 64.0 °F - 61.0 °F 90% 30.12 in 10.0 mi Calm Calm - N/A   Clear
11:54 PM 62.1 °F - 60.1 °F 93% 30.12 in 10.0 mi Calm Calm - N/A   Clear